[[{"header":{"parameterUnit":"m.s-1","parameterCategory":1,"la1":30.2991,"la2":30.254,"lo1":-89.0895,"lo2":-89.0444,"dy":0.0017,"dx":0.0017,"nx":28,"ny":28,"refTime":"2025-04-21T21:00:00:Z","depth":0,"parameterNumber":2,"parameterNumberName":"U-component_of_WINDS"},"data":[0,0,0,0,0,0,0,0,0,0,0,0,0,0,0,0,0,0,0,0,0,0,0,0,0,0,0,0,0,0,0,0,0,0,0,0,0,0,0,0,0,0,0,0,0,0,0,0,0,0,0,0,0,0,0,0,0,0,-0.3182,-0.3182,0,-0.3223,-0.3223,-0.3224,-0.3247,-0.3247,-0.3247,-0.3247,-0.3291,-0.3292,-0.3293,0,0,0,0,0,0,0,0,0,0,0,0,0,-0.3127,-0.3128,-0.3182,-0.3182,-0.3183,-0.3223,-0.3223,-0.3224,-0.3247,-0.3247,-0.3247,-0.3247,-0.3291,-0.3292,-0.3293,0,0,0,0,0,0,0,0,0,0,0,0,0,-0.3158,-0.3128,-0.3182,-0.3199,-0.3201,-0.3223,-0.3223,-0.3224,-0.3247,-0.3247,-0.3247,-0.3247,-0.329,-0.3292,-0.3294,-0.3302,0,0,-0.3299,-0.3299,0,0,0,0,0,0,0,0,-0.3156,-0.316,-0.3196,-0.3198,-0.32,-0.323,-0.322,-0.325,-0.3247,-0.323,-0.3247,-0.3247,-0.3271,-0.3274,-0.3282,-0.3304,-0.3306,-0.3299,-0.33,-0.3301,-0.3301,0,0,0,0,0,0,0,-0.3154,-0.3158,-0.3198,-0.3197,-0.3199,-0.3206,-0.321,-0.3226,-0.3249,-0.3231,-0.3233,-0.3237,-0.3272,-0.328,-0.3283,-0.3306,-0.3299,-0.33,-0.3301,-0.3302,-0.3339,-0.3339,0,0,0,0,0,0,-0.3148,-0.3156,-0.3197,-0.3199,-0.3178,-0.3207,-0.3212,-0.322,-0.3249,-0.3254,-0.3237,-0.3238,-0.3277,-0.3281,-0.3284,-0.3297,-0.3301,-0.3302,-0.3303,-0.3339,-0.3339,-0.3339,0,0,0,0,0,0,-0.3147,-0.3152,-0.3195,-0.3178,-0.3184,-0.3208,-0.3217,-0.3221,-0.3229,-0.3254,-0.3258,-0.3241,-0.3277,-0.3282,-0.3297,-0.3298,-0.3303,-0.3304,-0.3339,-0.3339,-0.3339,-0.332,0,0,0,0,0,0,-0.3146,-0.3151,-0.3154,-0.3178,-0.3185,-0.3206,-0.3217,-0.3222,-0.3231,-0.3233,-0.3258,-0.3262,-0.3278,-0.3295,-0.3299,-0.3301,-0.3306,-0.3339,-0.3339,-0.3339,-0.3321,-0.332,-0.3319,0,0,0,0,0,-0.3143,-0.3147,-0.3154,-0.3159,-0.3189,-0.3206,-0.3211,-0.3227,-0.3231,-0.3235,-0.3251,-0.3262,-0.3298,-0.3296,-0.3301,-0.3303,-0.3339,-0.3339,-0.3339,-0.3321,-0.332,-0.3319,0,0,0,0,0,0,-0.3123,-0.3151,-0.3158,-0.317,-0.3185,-0.321,-0.3215,-0.3225,-0.3241,-0.3242,-0.3263,-0.3268,-0.3282,-0.3294,-0.3292,-0.3314,-0.332,-0.332,-0.3305,-0.3303,-0.3302,-0.3299,-0.3307,0,0,0,0,0,-0.3119,-0.3131,-0.3155,-0.3163,-0.317,-0.3191,-0.32,-0.3211,-0.3229,-0.3236,-0.3253,-0.327,-0.3286,-0.3295,-0.3311,-0.3323,-0.3329,-0.3327,-0.3326,-0.3325,-0.3325,-0.3334,-0.3334,-0.3339,-0.3339,-0.3339,0,0,-0.3113,-0.313,-0.3135,-0.3159,-0.3173,-0.3185,-0.3197,-0.3209,-0.3219,-0.3238,-0.3253,-0.3267,-0.3288,-0.3302,-0.3309,-0.3312,-0.3326,-0.3325,-0.3324,-0.3325,-0.3334,-0.3334,-0.3333,-0.3339,-0.3339,-0.3339,0,0,-0.3107,-0.312,-0.3129,-0.3142,-0.3163,-0.3177,-0.3179,-0.3202,-0.3212,-0.3227,-0.3243,-0.3255,-0.3281,-0.3295,-0.3306,-0.3307,-0.3318,-0.3312,-0.3305,-0.3314,-0.3313,-0.3313,-0.3314,-0.3314,-0.3312,-0.3312,-0.3312,0,-0.3097,-0.3115,-0.3132,-0.3144,-0.3154,-0.3172,-0.3181,-0.3194,-0.3218,-0.3226,-0.3229,-0.3263,-0.3278,-0.3296,-0.3297,-0.3305,-0.3308,-0.3309,-0.3312,-0.3312,-0.3312,-0.3313,-0.3313,-0.3311,-0.3311,-0.3311,-0.3312,0,-0.3101,-0.3114,-0.3118,-0.3141,-0.3152,-0.3162,-0.3183,-0.3192,-0.3203,-0.3217,-0.3234,-0.3253,-0.3273,-0.3278,-0.3289,-0.3298,-0.33,-0.3307,-0.3314,-0.331,-0.3312,-0.3312,-0.331,-0.331,-0.3311,-0.3311,0,0,-0.3083,-0.3116,-0.3117,-0.3128,-0.3152,-0.3163,-0.3175,-0.3194,-0.3202,-0.3219,-0.323,-0.3252,-0.3259,-0.3271,-0.3284,-0.3291,-0.3292,-0.3298,-0.3299,-0.3297,-0.3305,-0.3299,-0.3299,-0.33,-0.33,-0.33,-0.3303,0,-0.3081,-0.3102,-0.3118,-0.3134,-0.3146,-0.3164,-0.3175,-0.3191,-0.3205,-0.3219,-0.3234,-0.325,-0.3258,-0.3265,-0.3273,-0.329,-0.3294,-0.329,-0.3311,-0.3312,-0.3306,-0.33,-0.3294,-0.3296,-0.3304,-0.3304,-0.3304,0,-0.3081,-0.3097,-0.3113,-0.3137,-0.3143,-0.3152,-0.3171,-0.3184,-0.3204,-0.3213,-0.3227,-0.3241,-0.3256,-0.3261,-0.3282,-0.328,-0.3289,-0.3299,-0.33,-0.3303,-0.3308,-0.3303,-0.3297,-0.3297,-0.3305,-0.3305,-0.3305,0,-0.3067,-0.3092,-0.3105,-0.3114,-0.3142,-0.3148,-0.3161,-0.3181,-0.3191,-0.3209,-0.3216,-0.3235,-0.3246,-0.3261,-0.328,-0.3282,-0.33,-0.3306,-0.3309,-0.3309,-0.3312,-0.3312,-0.3308,-0.3318,-0.3318,-0.3318,-0.3318,0,-0.3063,-0.3072,-0.3099,-0.3107,-0.3119,-0.3139,-0.315,-0.3164,-0.3182,-0.3194,-0.3211,-0.3222,-0.3247,-0.3261,-0.3276,-0.3292,-0.3297,-0.3306,-0.331,-0.3305,-0.3303,-0.3311,-0.3312,-0.3318,-0.3318,-0.3318,-0.3318,0,-0.3049,-0.3067,-0.3083,-0.3108,-0.3115,-0.3122,-0.3145,-0.3154,-0.3169,-0.3184,-0.3189,-0.3213,-0.3231,-0.3252,-0.3277,-0.3287,-0.3302,-0.3308,-0.3295,-0.3298,-0.3299,-0.3299,-0.3301,-0.3302,-0.3311,-0.3311,-0.3311,0,-0.3045,-0.3053,-0.3079,-0.3088,-0.3099,-0.3114,-0.3125,-0.3145,-0.3156,-0.318,-0.3187,-0.3206,-0.3223,-0.3251,-0.3272,-0.3291,-0.3298,-0.3297,-0.3301,-0.3296,-0.3299,-0.3298,-0.3299,-0.3296,-0.3296,-0.3296,-0.3295,0,-0.3037,-0.3046,-0.306,-0.3079,-0.3091,-0.3107,-0.3123,-0.313,-0.3154,-0.3166,-0.3184,-0.3197,-0.3223,-0.3242,-0.3265,-0.3279,-0.3292,-0.3294,-0.3296,-0.329,-0.3283,-0.3288,-0.3293,-0.3294,-0.3294,-0.3294,-0.3294,-0.3294,-0.3028,-0.3036,-0.3056,-0.3072,-0.3087,-0.3102,-0.3112,-0.3128,-0.3144,-0.3166,-0.3177,-0.3196,-0.3217,-0.3249,-0.3262,-0.3278,-0.3282,-0.3285,-0.3285,-0.3286,-0.3284,-0.328,-0.3282,-0.3282,-0.3282,-0.3283,-0.3283,0,-0.3021,-0.3035,-0.305,-0.3072,-0.3085,-0.3095,-0.3114,-0.3125,-0.3141,-0.3159,-0.3175,-0.3197,-0.3217,-0.3239,-0.326,-0.3268,-0.3275,-0.3273,-0.3273,-0.3276,-0.3279,-0.3276,-0.3268,-0.3268,-0.3268,-0.3268,-0.3268,-0.3268,-0.3019,-0.3034,-0.3045,-0.3067,-0.3081,-0.3099,-0.3109,-0.3124,-0.3139,-0.3162,-0.3178,-0.3192,-0.3212,-0.3235,-0.3254,-0.326,-0.3267,-0.3264,-0.3272,-0.3275,-0.3276,-0.3277,-0.3274,-0.3265,-0.3265,-0.3268,-0.3268,-0.3268]},{"header":{"parameterUnit":"m.s-1","parameterCategory":1,"la1":30.2991,"la2":30.254,"lo1":-89.0895,"lo2":-89.0444,"dy":0.0017,"dx":0.0017,"nx":28,"ny":28,"refTime":"2025-04-21T21:00:00:Z","depth":0,"parameterNumber":3,"parameterNumberName":"V-component_of_WINDS"},"data":[0,0,0,0,0,0,0,0,0,0,0,0,0,0,0,0,0,0,0,0,0,0,0,0,0,0,0,0,0,0,0,0,0,0,0,0,0,0,0,0,0,0,0,0,0,0,0,0,0,0,0,0,0,0,0,0,0,0,3.1372,3.1372,0,3.1399,3.1399,3.14,3.1396,3.1395,3.1395,3.1394,3.1418,3.1419,3.142,0,0,0,0,0,0,0,0,0,0,0,0,0,3.1314,3.1315,3.1372,3.1372,3.1373,3.1399,3.1399,3.14,3.1396,3.1395,3.1395,3.1394,3.1418,3.1419,3.1421,0,0,0,0,0,0,0,0,0,0,0,0,0,3.134,3.1315,3.1372,3.1374,3.1374,3.1399,3.1399,3.14,3.1396,3.1395,3.1394,3.1394,3.1418,3.1419,3.1421,3.1444,0,0,3.1426,3.1426,0,0,0,0,0,0,0,0,3.1338,3.1342,3.1373,3.1374,3.1374,3.1393,3.1388,3.1415,3.1396,3.1388,3.1394,3.1393,3.141,3.1413,3.1419,3.1445,3.1446,3.1426,3.1427,3.1427,3.1428,0,0,0,0,0,0,0,3.1337,3.1341,3.1383,3.1374,3.1374,3.1373,3.1375,3.1393,3.1402,3.1388,3.1388,3.1391,3.1411,3.1417,3.1419,3.1447,3.1426,3.1427,3.1428,3.1429,3.1494,3.1495,0,0,0,0,0,0,3.1335,3.1339,3.1382,3.1383,3.1354,3.1374,3.1377,3.1388,3.1402,3.1404,3.1392,3.1391,3.1415,3.1418,3.142,3.1449,3.1427,3.1429,3.143,3.1493,3.1494,3.1495,0,0,0,0,0,0,3.1333,3.1339,3.1381,3.1361,3.1367,3.1376,3.1388,3.1389,3.1396,3.1405,3.1406,3.1398,3.1415,3.1418,3.1439,3.145,3.143,3.1431,3.1492,3.1494,3.1495,3.1506,0,0,0,0,0,0,3.1332,3.1338,3.1348,3.1362,3.1368,3.1399,3.1388,3.139,3.1399,3.1398,3.1411,3.1412,3.1414,3.1436,3.144,3.1452,3.1432,3.1491,3.1493,3.1494,3.1505,3.1508,3.151,0,0,0,0,0,3.133,3.1349,3.1348,3.1353,3.138,3.14,3.1403,3.1407,3.14,3.1409,3.1415,3.1412,3.1448,3.1438,3.1443,3.1455,3.1491,3.1492,3.1494,3.1504,3.1507,3.151,0,0,0,0,0,0,3.1334,3.1351,3.135,3.1374,3.1386,3.1399,3.1411,3.141,3.1423,3.1421,3.1424,3.1427,3.1448,3.1453,3.1442,3.1479,3.1468,3.1471,3.1474,3.1478,3.148,3.1478,3.1434,0,0,0,0,0,3.1338,3.1354,3.1367,3.1387,3.1394,3.1401,3.141,3.1412,3.1424,3.1428,3.1436,3.1446,3.146,3.1469,3.1482,3.1506,3.1509,3.1517,3.1519,3.1521,3.1523,3.1537,3.154,3.1501,3.1501,3.1501,0,0,3.1346,3.1357,3.1367,3.1389,3.1398,3.1414,3.1405,3.1422,3.1434,3.143,3.1451,3.1457,3.1469,3.1491,3.1501,3.1496,3.1535,3.1523,3.1525,3.1526,3.1539,3.1543,3.1546,3.1502,3.1502,3.1502,0,0,3.1369,3.1379,3.1397,3.1407,3.1422,3.1427,3.1432,3.1446,3.145,3.1471,3.1469,3.1482,3.1506,3.1515,3.1523,3.155,3.1547,3.1554,3.1568,3.1581,3.1584,3.1587,3.1597,3.16,3.1557,3.1557,3.1557,0,3.1376,3.1401,3.1406,3.1424,3.1434,3.1433,3.1452,3.1461,3.1478,3.1485,3.1479,3.151,3.1518,3.1543,3.155,3.1556,3.1561,3.1553,3.1583,3.1586,3.1589,3.1598,3.1602,3.1557,3.1557,3.1557,3.1557,0,3.141,3.1427,3.144,3.1459,3.1471,3.1488,3.1496,3.1506,3.1507,3.1513,3.1534,3.1544,3.156,3.1566,3.1566,3.1591,3.1588,3.1583,3.1572,3.1593,3.1602,3.1606,3.1559,3.1558,3.1558,3.1558,0,0,3.1434,3.1458,3.1463,3.1472,3.1489,3.1502,3.152,3.1537,3.1546,3.1558,3.1573,3.1594,3.159,3.1599,3.16,3.1612,3.1634,3.1605,3.1606,3.161,3.1661,3.1665,3.1669,3.1632,3.1633,3.1633,3.166,0,3.1459,3.1492,3.1498,3.1526,3.1543,3.1543,3.1559,3.157,3.1577,3.159,3.1597,3.1612,3.1605,3.1611,3.1622,3.1628,3.1644,3.1627,3.1645,3.1646,3.1642,3.1674,3.1677,3.1702,3.1664,3.1664,3.1665,0,3.1491,3.1507,3.1538,3.1554,3.1561,3.1575,3.1591,3.1605,3.1618,3.1622,3.1632,3.1633,3.1651,3.1641,3.1665,3.1653,3.1661,3.1666,3.1667,3.1668,3.1656,3.1676,3.171,3.1714,3.167,3.167,3.167,0,3.1507,3.1535,3.1557,3.1565,3.1584,3.1594,3.1603,3.1616,3.1626,3.164,3.1646,3.1662,3.167,3.1681,3.1686,3.1678,3.171,3.17,3.1713,3.1713,3.172,3.1719,3.1756,3.1725,3.1725,3.1725,3.1725,0,3.1533,3.1552,3.1565,3.1578,3.16,3.1606,3.1626,3.1634,3.1646,3.166,3.1661,3.1675,3.168,3.1694,3.1698,3.1718,3.1722,3.1724,3.1725,3.1724,3.1724,3.1729,3.1728,3.1726,3.1726,3.1726,3.1725,0,3.1553,3.1563,3.1587,3.1605,3.1609,3.1624,3.1638,3.1651,3.1658,3.1676,3.1681,3.1691,3.1708,3.1714,3.1734,3.1736,3.1759,3.1759,3.1755,3.1755,3.1768,3.1767,3.1809,3.1815,3.1781,3.1781,3.1781,0,3.1569,3.1584,3.1604,3.1615,3.1624,3.1641,3.1652,3.1659,3.167,3.1687,3.1698,3.1715,3.1729,3.1756,3.1764,3.1779,3.1779,3.1793,3.1781,3.178,3.1779,3.1778,3.178,3.1795,3.1795,3.1795,3.1796,0,3.1597,3.1602,3.1618,3.1637,3.1651,3.1665,3.1679,3.1687,3.1696,3.1709,3.1727,3.1738,3.176,3.1777,3.1793,3.18,3.1799,3.1799,3.1803,3.1802,3.18,3.1802,3.1761,3.1798,3.1798,3.1798,3.1798,3.1797,3.1616,3.1629,3.1646,3.1664,3.1676,3.169,3.1703,3.1713,3.1728,3.1748,3.175,3.177,3.1783,3.1805,3.1813,3.1828,3.1824,3.183,3.1831,3.1832,3.1833,3.1798,3.1831,3.1831,3.1831,3.1831,3.1831,0,3.1644,3.1655,3.1672,3.1693,3.1708,3.1708,3.1723,3.1735,3.1753,3.1766,3.1781,3.1802,3.1819,3.1829,3.1846,3.1856,3.1856,3.186,3.1859,3.1861,3.1836,3.1831,3.186,3.1859,3.1859,3.1859,3.1859,3.1859,3.166,3.1683,3.169,3.1719,3.1729,3.175,3.1759,3.1771,3.1782,3.1807,3.1821,3.1829,3.1841,3.1859,3.1874,3.1876,3.1882,3.1887,3.1889,3.1865,3.1862,3.1859,3.1855,3.1888,3.1888,3.1912,3.1913,3.1913]}]]